Year,Month,Day,Hour,Minute,Value (Times are PST for temperature in C)
2021,08,11,00,00,19.10
2021,08,11,00,01,19.10
2021,08,11,00,02,19.10
2021,08,11,00,03,19.10
2021,08,11,00,04,19.10
2021,08,11,00,05,19.10
2021,08,11,00,06,19.10
2021,08,11,00,07,19.10
2021,08,11,00,08,19.10
2021,08,11,00,09,19.10
2021,08,11,00,10,19.10
2021,08,11,00,11,19.10
2021,08,11,00,12,19.10
2021,08,11,00,13,19.10
2021,08,11,00,14,19.10
2021,08,11,00,15,19.10
2021,08,11,00,16,19.10
2021,08,11,00,17,19.10
2021,08,11,00,18,19.10
2021,08,11,00,19,19.10
2021,08,11,00,20,19.00
2021,08,11,00,21,19.00
2021,08,11,00,22,19.00
2021,08,11,00,23,19.00
2021,08,11,00,24,19.00
2021,08,11,00,25,19.00
2021,08,11,00,26,19.00
2021,08,11,00,27,19.00
2021,08,11,00,28,19.00
2021,08,11,00,29,19.00
2021,08,11,00,30,19.00
2021,08,11,00,31,19.00
2021,08,11,00,32,19.00
2021,08,11,00,33,19.00
2021,08,11,00,34,18.90
2021,08,11,00,35,18.90
2021,08,11,00,36,18.90
2021,08,11,00,37,18.90
2021,08,11,00,38,18.90
2021,08,11,00,39,18.90
2021,08,11,00,40,18.90
2021,08,11,00,41,18.90
2021,08,11,00,42,18.90
2021,08,11,00,43,18.90
2021,08,11,00,44,18.90
2021,08,11,00,45,18.90
2021,08,11,00,46,18.80
2021,08,11,00,47,18.90
2021,08,11,00,48,18.90
2021,08,11,00,49,18.80
2021,08,11,00,50,18.80
2021,08,11,00,51,18.80
2021,08,11,00,52,18.80
2021,08,11,00,53,18.80
2021,08,11,00,54,18.80
2021,08,11,00,55,18.80
2021,08,11,00,56,18.80
2021,08,11,00,57,18.80
2021,08,11,00,58,18.80
2021,08,11,00,59,18.80
2021,08,11,01,00,18.80
2021,08,11,01,01,18.80
2021,08,11,01,02,18.80
2021,08,11,01,03,18.80
2021,08,11,01,04,18.80
2021,08,11,01,05,18.80
2021,08,11,01,06,18.80
2021,08,11,01,07,18.80
2021,08,11,01,08,18.80
2021,08,11,01,09,18.80
2021,08,11,01,10,18.80
2021,08,11,01,11,18.80
2021,08,11,01,12,18.80
2021,08,11,01,13,18.80
2021,08,11,01,14,18.80
2021,08,11,01,15,18.80
2021,08,11,01,16,18.80
2021,08,11,01,17,18.80
2021,08,11,01,18,18.80
2021,08,11,01,19,18.80
2021,08,11,01,20,18.80
2021,08,11,01,21,18.80
2021,08,11,01,22,18.80
2021,08,11,01,23,18.80
2021,08,11,01,24,18.80
2021,08,11,01,25,18.80
2021,08,11,01,26,18.80
2021,08,11,01,27,18.80
2021,08,11,01,28,18.80
2021,08,11,01,29,18.80
2021,08,11,01,30,18.80
2021,08,11,01,31,18.80
2021,08,11,01,32,18.80
2021,08,11,01,33,18.80
2021,08,11,01,34,18.80
2021,08,11,01,35,18.80
2021,08,11,01,36,18.80
2021,08,11,01,37,18.80
2021,08,11,01,38,18.80
2021,08,11,01,39,18.80
2021,08,11,01,40,18.80
2021,08,11,01,41,18.80
2021,08,11,01,42,18.80
2021,08,11,01,43,18.80
2021,08,11,01,44,18.80
2021,08,11,01,45,18.80
2021,08,11,01,46,18.80
2021,08,11,01,47,18.80
2021,08,11,01,48,18.80
2021,08,11,01,49,18.80
2021,08,11,01,50,18.80
2021,08,11,01,51,18.80
2021,08,11,01,52,18.80
2021,08,11,01,53,18.80
2021,08,11,01,54,18.80
2021,08,11,01,55,18.80
2021,08,11,01,56,18.80
2021,08,11,01,57,18.80
2021,08,11,01,58,18.80
2021,08,11,01,59,18.80
2021,08,11,02,00,18.80
2021,08,11,02,01,18.80
2021,08,11,02,02,18.90
2021,08,11,02,03,18.90
2021,08,11,02,04,19.10
2021,08,11,02,05,19.20
2021,08,11,02,06,19.30
2021,08,11,02,07,19.40
2021,08,11,02,08,19.40
2021,08,11,02,09,19.50
2021,08,11,02,10,19.60
2021,08,11,02,11,19.60
2021,08,11,02,12,19.70
2021,08,11,02,13,19.70
2021,08,11,02,14,19.70
2021,08,11,02,15,19.70
2021,08,11,02,16,19.70
2021,08,11,02,17,19.70
2021,08,11,02,18,19.80
2021,08,11,02,19,19.80
2021,08,11,02,20,19.70
2021,08,11,02,21,19.80
2021,08,11,02,22,19.80
2021,08,11,02,23,19.70
2021,08,11,02,24,19.70
2021,08,11,02,25,19.70
2021,08,11,02,26,19.70
2021,08,11,02,27,19.70
2021,08,11,02,28,19.70
2021,08,11,02,29,19.70
2021,08,11,02,30,19.70
2021,08,11,02,31,19.70
2021,08,11,02,32,19.80
2021,08,11,02,33,19.80
2021,08,11,02,34,19.80
2021,08,11,02,35,19.80
2021,08,11,02,36,19.90
2021,08,11,02,37,19.90
2021,08,11,02,38,19.90
2021,08,11,02,39,20.00
2021,08,11,02,40,20.10
2021,08,11,02,41,20.10
2021,08,11,02,42,20.10
2021,08,11,02,43,20.20
2021,08,11,02,44,20.20
2021,08,11,02,45,20.20
2021,08,11,02,46,20.20
2021,08,11,02,47,20.30
2021,08,11,02,48,20.30
2021,08,11,02,49,20.30
2021,08,11,02,50,20.30
2021,08,11,02,51,20.30
2021,08,11,02,52,20.30
2021,08,11,02,53,20.40
2021,08,11,02,54,20.50
2021,08,11,02,55,20.50
2021,08,11,02,56,20.60
2021,08,11,02,57,20.70
2021,08,11,02,58,20.70
2021,08,11,02,59,20.70
2021,08,11,03,00,20.80
2021,08,11,03,01,20.80
2021,08,11,03,02,20.80
2021,08,11,03,03,20.80
2021,08,11,03,04,20.80
2021,08,11,03,05,20.80
2021,08,11,03,06,20.90
2021,08,11,03,07,20.90
2021,08,11,03,08,20.90
2021,08,11,03,09,20.90
2021,08,11,03,10,20.90
2021,08,11,03,11,20.90
2021,08,11,03,12,20.90
2021,08,11,03,13,20.90
2021,08,11,03,14,20.90
2021,08,11,03,15,20.90
2021,08,11,03,16,20.90
2021,08,11,03,17,20.90
2021,08,11,03,18,20.90
2021,08,11,03,19,20.90
2021,08,11,03,20,20.90
2021,08,11,03,21,20.90
2021,08,11,03,22,20.90
2021,08,11,03,23,20.90
2021,08,11,03,24,20.90
2021,08,11,03,25,20.90
2021,08,11,03,26,20.90
2021,08,11,03,27,21.00
2021,08,11,03,28,21.00
2021,08,11,03,29,20.90
2021,08,11,03,30,20.90
2021,08,11,03,31,20.90
2021,08,11,03,32,20.90
2021,08,11,03,33,20.90
2021,08,11,03,34,20.90
2021,08,11,03,35,20.90
2021,08,11,03,36,20.90
2021,08,11,03,37,20.80
2021,08,11,03,38,20.90
2021,08,11,03,39,20.90
2021,08,11,03,40,20.90
2021,08,11,03,41,20.90
2021,08,11,03,42,20.90
2021,08,11,03,43,20.90
2021,08,11,03,44,20.90
2021,08,11,03,45,20.90
2021,08,11,03,46,20.90
2021,08,11,03,47,20.90
2021,08,11,03,48,20.90
2021,08,11,03,49,20.90
2021,08,11,03,50,20.90
2021,08,11,03,51,20.90
2021,08,11,03,52,20.90
2021,08,11,03,53,20.90
2021,08,11,03,54,20.90
2021,08,11,03,55,20.90
2021,08,11,03,56,20.90
2021,08,11,03,57,20.90
2021,08,11,03,58,20.90
2021,08,11,03,59,20.90
2021,08,11,04,00,20.90
2021,08,11,04,01,20.90
2021,08,11,04,02,20.90
2021,08,11,04,03,20.90
2021,08,11,04,04,20.90
2021,08,11,04,05,20.90
2021,08,11,04,06,20.90
2021,08,11,04,07,20.90
2021,08,11,04,08,20.90
2021,08,11,04,09,20.90
2021,08,11,04,10,20.90
2021,08,11,04,11,20.90
2021,08,11,04,12,20.90
2021,08,11,04,13,20.90
2021,08,11,04,14,20.90
2021,08,11,04,15,20.90
2021,08,11,04,16,20.90
2021,08,11,04,17,20.90
2021,08,11,04,18,20.90
2021,08,11,04,19,20.90
2021,08,11,04,20,20.90
2021,08,11,04,21,20.80
2021,08,11,04,22,20.80
2021,08,11,04,23,20.80
2021,08,11,04,24,20.80
2021,08,11,04,25,20.80
2021,08,11,04,26,20.80
2021,08,11,04,27,20.80
2021,08,11,04,28,20.80
2021,08,11,04,29,20.70
2021,08,11,04,30,20.70
2021,08,11,04,31,20.70
2021,08,11,04,32,20.70
2021,08,11,04,33,20.70
2021,08,11,04,34,20.70
2021,08,11,04,35,20.70
2021,08,11,04,36,20.70
2021,08,11,04,37,20.70
2021,08,11,04,38,20.70
2021,08,11,04,39,20.70
2021,08,11,04,40,20.70
2021,08,11,04,41,20.70
2021,08,11,04,42,20.70
2021,08,11,04,43,20.80
2021,08,11,04,44,20.80
2021,08,11,04,45,20.80
2021,08,11,04,46,20.80
2021,08,11,04,47,20.80
2021,08,11,04,48,20.80
2021,08,11,04,49,20.80
2021,08,11,04,50,20.80
2021,08,11,04,51,20.80
2021,08,11,04,52,20.80
2021,08,11,04,53,20.80
2021,08,11,04,54,20.80
2021,08,11,04,55,20.80
2021,08,11,04,56,20.80
2021,08,11,04,57,20.80
2021,08,11,04,58,20.70
2021,08,11,04,59,20.70
2021,08,11,05,00,20.70
2021,08,11,05,01,20.70
2021,08,11,05,02,20.70
2021,08,11,05,03,20.70
2021,08,11,05,04,20.70
2021,08,11,05,05,20.70
2021,08,11,05,06,20.70
2021,08,11,05,07,20.70
2021,08,11,05,08,20.70
2021,08,11,05,09,20.70
2021,08,11,05,10,20.70
2021,08,11,05,11,20.70
2021,08,11,05,12,20.70
2021,08,11,05,13,20.70
2021,08,11,05,14,20.70
2021,08,11,05,15,20.70
2021,08,11,05,16,20.70
2021,08,11,05,17,20.70
2021,08,11,05,18,20.70
2021,08,11,05,19,20.70
2021,08,11,05,20,20.70
2021,08,11,05,21,20.70
2021,08,11,05,22,20.70
2021,08,11,05,23,20.70
2021,08,11,05,24,20.60
2021,08,11,05,25,20.60
2021,08,11,05,26,20.60
2021,08,11,05,27,20.60
2021,08,11,05,28,20.60
2021,08,11,05,29,20.60
2021,08,11,05,30,20.60
2021,08,11,05,31,20.60
2021,08,11,05,32,20.60
2021,08,11,05,33,20.60
2021,08,11,05,34,20.60
2021,08,11,05,35,20.60
2021,08,11,05,36,20.60
2021,08,11,05,37,20.60
2021,08,11,05,38,20.60
2021,08,11,05,39,20.60
2021,08,11,05,40,20.60
2021,08,11,05,41,20.60
2021,08,11,05,42,20.60
2021,08,11,05,43,20.60
2021,08,11,05,44,20.60
2021,08,11,05,45,20.60
2021,08,11,05,46,20.60
2021,08,11,05,47,20.60
2021,08,11,05,48,20.60
2021,08,11,05,49,20.60
2021,08,11,05,50,20.60
2021,08,11,05,51,20.50
2021,08,11,05,52,20.50
2021,08,11,05,53,20.50
2021,08,11,05,54,20.50
2021,08,11,05,55,20.50
2021,08,11,05,56,20.40
2021,08,11,05,57,20.40
2021,08,11,05,58,20.40
2021,08,11,05,59,20.40
2021,08,11,06,00,20.40
2021,08,11,06,01,20.40
2021,08,11,06,02,20.30
2021,08,11,06,03,20.30
2021,08,11,06,04,20.30
2021,08,11,06,05,20.30
2021,08,11,06,06,20.30
2021,08,11,06,07,20.30
2021,08,11,06,08,20.30
2021,08,11,06,09,20.30
2021,08,11,06,10,20.30
2021,08,11,06,11,20.30
2021,08,11,06,12,20.30
2021,08,11,06,13,20.30
2021,08,11,06,14,20.30
2021,08,11,06,15,20.30
2021,08,11,06,16,20.30
2021,08,11,06,17,20.30
2021,08,11,06,18,20.30
2021,08,11,06,19,20.20
2021,08,11,06,20,20.20
2021,08,11,06,21,20.20
2021,08,11,06,22,20.20
2021,08,11,06,23,20.20
2021,08,11,06,24,20.20
2021,08,11,06,25,20.20
2021,08,11,06,26,20.20
2021,08,11,06,27,20.20
2021,08,11,06,28,20.20
2021,08,11,06,29,20.20
2021,08,11,06,30,20.20
2021,08,11,06,31,20.20
2021,08,11,06,32,20.20
2021,08,11,06,33,20.30
2021,08,11,06,34,20.30
2021,08,11,06,35,20.30
2021,08,11,06,36,20.30
2021,08,11,06,37,20.30
2021,08,11,06,38,20.40
2021,08,11,06,39,20.40
2021,08,11,06,40,20.40
2021,08,11,06,41,20.40
2021,08,11,06,42,20.40
2021,08,11,06,43,20.40
2021,08,11,06,44,20.50
2021,08,11,06,45,20.50
2021,08,11,06,46,20.50
2021,08,11,06,47,20.50
2021,08,11,06,48,20.50
2021,08,11,06,49,20.50
2021,08,11,06,50,20.50
2021,08,11,06,51,20.50
2021,08,11,06,52,20.50
2021,08,11,06,53,20.50
2021,08,11,06,54,20.50
2021,08,11,06,55,20.50
2021,08,11,06,56,20.50
2021,08,11,06,57,20.50
2021,08,11,06,58,20.50
2021,08,11,06,59,20.50
2021,08,11,07,00,20.50
2021,08,11,07,01,20.40
2021,08,11,07,02,20.40
2021,08,11,07,03,20.40
2021,08,11,07,04,20.40
2021,08,11,07,05,20.40
2021,08,11,07,06,20.40
2021,08,11,07,07,20.40
2021,08,11,07,08,20.40
2021,08,11,07,09,20.40
2021,08,11,07,10,20.40
2021,08,11,07,11,20.40
2021,08,11,07,12,20.40
2021,08,11,07,13,20.40
2021,08,11,07,14,20.40
2021,08,11,07,15,20.40
2021,08,11,07,16,20.40
2021,08,11,07,17,20.40
2021,08,11,07,18,20.40
2021,08,11,07,19,20.40
2021,08,11,07,20,20.40
2021,08,11,07,21,20.40
2021,08,11,07,22,20.40
2021,08,11,07,23,20.40
2021,08,11,07,24,20.40
2021,08,11,07,25,20.40
2021,08,11,07,26,20.40
2021,08,11,07,27,20.40
2021,08,11,07,28,20.50
2021,08,11,07,29,20.50
2021,08,11,07,30,20.50
2021,08,11,07,31,20.50
2021,08,11,07,32,20.50
2021,08,11,07,33,20.50
2021,08,11,07,34,20.50
2021,08,11,07,35,20.50
2021,08,11,07,36,20.50
2021,08,11,07,37,20.50
2021,08,11,07,38,20.60
2021,08,11,07,39,20.50
2021,08,11,07,40,20.50
2021,08,11,07,41,20.50
2021,08,11,07,42,20.50
2021,08,11,07,43,20.50
2021,08,11,07,44,20.60
2021,08,11,07,45,20.50
2021,08,11,07,46,20.60
2021,08,11,07,47,20.60
2021,08,11,07,48,20.60
2021,08,11,07,49,20.60
2021,08,11,07,50,20.60
2021,08,11,07,51,20.60
2021,08,11,07,52,20.60
2021,08,11,07,53,20.60
2021,08,11,07,54,20.60
2021,08,11,07,55,20.60
2021,08,11,07,56,20.60
2021,08,11,07,57,20.60
2021,08,11,07,58,20.60
2021,08,11,07,59,20.60
2021,08,11,08,00,20.60
2021,08,11,08,01,20.60
2021,08,11,08,02,20.60
2021,08,11,08,03,20.60
2021,08,11,08,04,20.60
2021,08,11,08,05,20.60
2021,08,11,08,06,20.60
2021,08,11,08,07,20.60
2021,08,11,08,08,20.60
2021,08,11,08,09,20.70
2021,08,11,08,10,20.70
2021,08,11,08,11,20.70
2021,08,11,08,12,20.80
2021,08,11,08,13,20.80
2021,08,11,08,14,20.80
2021,08,11,08,15,20.80
2021,08,11,08,16,20.90
2021,08,11,08,17,20.90
2021,08,11,08,18,20.90
2021,08,11,08,19,20.90
2021,08,11,08,20,21.00
2021,08,11,08,21,21.00
2021,08,11,08,22,21.00
2021,08,11,08,23,21.00
2021,08,11,08,24,21.00
2021,08,11,08,25,21.00
2021,08,11,08,26,21.00
2021,08,11,08,27,21.00
2021,08,11,08,28,21.00
2021,08,11,08,29,21.10
2021,08,11,08,30,21.10
2021,08,11,08,31,21.10
2021,08,11,08,32,21.10
2021,08,11,08,33,21.10
2021,08,11,08,34,21.10
2021,08,11,08,35,21.10
2021,08,11,08,36,21.10
2021,08,11,08,37,21.10
2021,08,11,08,38,21.10
2021,08,11,08,39,21.10
2021,08,11,08,40,21.10
2021,08,11,08,41,21.10
2021,08,11,08,42,21.10
2021,08,11,08,43,21.10
2021,08,11,08,44,21.10
2021,08,11,08,45,21.10
2021,08,11,08,46,21.10
2021,08,11,08,47,21.10
2021,08,11,08,48,21.20
2021,08,11,08,49,21.20
2021,08,11,08,50,21.20
2021,08,11,08,51,21.20
2021,08,11,08,52,21.20
2021,08,11,08,53,21.20
2021,08,11,08,54,21.30
2021,08,11,08,55,21.30
2021,08,11,08,56,21.30
2021,08,11,08,57,21.30
2021,08,11,08,58,21.30
2021,08,11,08,59,21.30
2021,08,11,09,00,21.40
2021,08,11,09,01,21.40
2021,08,11,09,02,21.30
2021,08,11,09,03,21.40
2021,08,11,09,04,21.30
2021,08,11,09,05,21.40
2021,08,11,09,06,21.40
2021,08,11,09,07,21.40
2021,08,11,09,08,21.40
2021,08,11,09,09,21.40
2021,08,11,09,10,21.40
2021,08,11,09,11,21.40
2021,08,11,09,12,21.40
2021,08,11,09,13,21.40
2021,08,11,09,14,21.40
2021,08,11,09,15,21.40
2021,08,11,09,16,21.50
2021,08,11,09,17,21.50
2021,08,11,09,18,21.40
2021,08,11,09,19,21.50
2021,08,11,09,20,21.50
2021,08,11,09,21,21.50
2021,08,11,09,22,21.50
2021,08,11,09,23,21.50
2021,08,11,09,24,21.50
2021,08,11,09,25,21.50
2021,08,11,09,26,21.60
2021,08,11,09,27,21.60
2021,08,11,09,28,21.60
2021,08,11,09,29,21.60
2021,08,11,09,30,21.60
2021,08,11,09,31,21.60
2021,08,11,09,32,21.60
2021,08,11,09,33,21.60
2021,08,11,09,34,21.60
2021,08,11,09,35,21.60
2021,08,11,09,36,21.60
2021,08,11,09,37,21.60
2021,08,11,09,38,21.70
2021,08,11,09,39,21.70
2021,08,11,09,40,21.70
2021,08,11,09,41,21.70
2021,08,11,09,42,21.70
2021,08,11,09,43,21.80
2021,08,11,09,44,21.80
2021,08,11,09,45,21.80
2021,08,11,09,46,21.80
2021,08,11,09,47,21.80
2021,08,11,09,48,21.80
2021,08,11,09,49,21.90
2021,08,11,09,50,21.90
2021,08,11,09,51,21.90
2021,08,11,09,52,21.90
2021,08,11,09,53,21.90
2021,08,11,09,54,21.90
2021,08,11,09,55,21.90
2021,08,11,09,56,21.90
2021,08,11,09,57,21.90
2021,08,11,09,58,21.90
2021,08,11,09,59,21.90
2021,08,11,10,00,21.90
2021,08,11,10,01,22.00
2021,08,11,10,02,21.90
2021,08,11,10,03,21.90
2021,08,11,10,04,21.90
2021,08,11,10,05,22.00
2021,08,11,10,06,22.00
2021,08,11,10,07,22.00
2021,08,11,10,08,22.10
2021,08,11,10,09,22.10
2021,08,11,10,10,22.10
2021,08,11,10,11,22.10
2021,08,11,10,12,22.10
2021,08,11,10,13,22.10
2021,08,11,10,14,22.10
2021,08,11,10,15,22.10
2021,08,11,10,16,22.10
2021,08,11,10,17,22.10
2021,08,11,10,18,22.10
2021,08,11,10,19,22.20
2021,08,11,10,20,22.20
2021,08,11,10,21,22.20
2021,08,11,10,22,22.20
2021,08,11,10,23,22.20
2021,08,11,10,24,22.20
2021,08,11,10,25,22.20
2021,08,11,10,26,22.20
2021,08,11,10,27,22.20
2021,08,11,10,28,22.30
2021,08,11,10,29,22.30
2021,08,11,10,30,22.30
2021,08,11,10,31,22.30
2021,08,11,10,32,22.30
2021,08,11,10,33,22.40
2021,08,11,10,34,22.40
2021,08,11,10,35,22.40
2021,08,11,10,36,22.40
2021,08,11,10,37,22.40
2021,08,11,10,38,22.50
2021,08,11,10,39,22.50
2021,08,11,10,40,22.50
2021,08,11,10,41,22.50
2021,08,11,10,42,22.50
2021,08,11,10,43,22.60
2021,08,11,10,44,22.60
2021,08,11,10,45,22.60
2021,08,11,10,46,22.60
2021,08,11,10,47,22.60
2021,08,11,10,48,22.60
2021,08,11,10,49,22.60
2021,08,11,10,50,22.60
2021,08,11,10,51,22.60
2021,08,11,10,52,22.70
2021,08,11,10,53,22.60
2021,08,11,10,54,22.70
2021,08,11,10,55,22.70
2021,08,11,10,56,22.70
2021,08,11,10,57,22.70
2021,08,11,10,58,22.70
2021,08,11,10,59,22.70
2021,08,11,11,00,22.70
2021,08,11,11,01,22.70
2021,08,11,11,02,22.70
2021,08,11,11,03,22.80
2021,08,11,11,04,22.80
2021,08,11,11,05,22.80
2021,08,11,11,06,22.80
2021,08,11,11,07,22.80
2021,08,11,11,08,22.80
2021,08,11,11,09,22.80
2021,08,11,11,10,22.80
2021,08,11,11,11,22.90
2021,08,11,11,12,22.90
2021,08,11,11,13,22.90
2021,08,11,11,14,23.00
2021,08,11,11,15,23.00
2021,08,11,11,16,23.00
2021,08,11,11,17,23.10
2021,08,11,11,18,23.10
2021,08,11,11,19,23.10
2021,08,11,11,20,23.10
2021,08,11,11,21,23.10
2021,08,11,11,22,23.10
2021,08,11,11,23,23.20
2021,08,11,11,24,23.20
2021,08,11,11,25,23.10
2021,08,11,11,26,23.20
2021,08,11,11,27,23.20
2021,08,11,11,28,23.20
2021,08,11,11,29,23.20
2021,08,11,11,30,23.20
2021,08,11,11,31,23.20
2021,08,11,11,32,23.30
2021,08,11,11,33,23.30
2021,08,11,11,34,23.30
2021,08,11,11,35,23.40
2021,08,11,11,36,23.40
2021,08,11,11,37,23.40
2021,08,11,11,38,23.40
2021,08,11,11,39,23.40
2021,08,11,11,40,23.40
2021,08,11,11,41,23.40
2021,08,11,11,42,23.40
2021,08,11,11,43,23.40
2021,08,11,11,44,23.40
2021,08,11,11,45,23.50
2021,08,11,11,46,23.50
2021,08,11,11,47,23.50
2021,08,11,11,48,23.50
2021,08,11,11,49,23.50
2021,08,11,11,50,23.50
2021,08,11,11,51,23.60
2021,08,11,11,52,23.60
2021,08,11,11,53,23.60
2021,08,11,11,54,23.60
2021,08,11,11,55,23.60
2021,08,11,11,56,23.70
2021,08,11,11,57,23.70
2021,08,11,11,58,23.70
2021,08,11,11,59,23.70
2021,08,11,12,00,23.80
2021,08,11,12,01,23.80
2021,08,11,12,02,23.80
2021,08,11,12,03,23.80
2021,08,11,12,04,23.80
2021,08,11,12,05,23.80
2021,08,11,12,06,23.80
2021,08,11,12,07,23.80
2021,08,11,12,08,23.70
2021,08,11,12,09,23.70
2021,08,11,12,10,23.70
2021,08,11,12,11,23.70
2021,08,11,12,12,23.70
2021,08,11,12,13,23.80
2021,08,11,12,14,23.80
2021,08,11,12,15,23.80
2021,08,11,12,16,23.80
2021,08,11,12,17,23.90
2021,08,11,12,18,23.90
2021,08,11,12,19,23.90
2021,08,11,12,20,23.90
2021,08,11,12,21,23.90
2021,08,11,12,22,24.00
2021,08,11,12,23,24.00
2021,08,11,12,24,24.00
2021,08,11,12,25,24.00
2021,08,11,12,26,23.90
2021,08,11,12,27,23.90
2021,08,11,12,28,23.90
2021,08,11,12,29,23.90
2021,08,11,12,30,23.90
2021,08,11,12,31,23.90
2021,08,11,12,32,24.00
2021,08,11,12,33,24.00
2021,08,11,12,34,24.00
2021,08,11,12,35,24.10
2021,08,11,12,36,24.10
2021,08,11,12,37,24.20
2021,08,11,12,38,24.20
2021,08,11,12,39,24.30
2021,08,11,12,40,24.30
2021,08,11,12,41,24.30
2021,08,11,12,42,24.40
2021,08,11,12,43,24.40
2021,08,11,12,44,24.40
2021,08,11,12,45,24.50
2021,08,11,12,46,24.50
2021,08,11,12,47,24.60
2021,08,11,12,48,24.60
2021,08,11,12,49,24.70
2021,08,11,12,50,24.70
2021,08,11,12,51,24.70
2021,08,11,12,52,24.80
2021,08,11,12,53,24.80
2021,08,11,12,54,24.90
2021,08,11,12,55,24.90
2021,08,11,12,56,24.90
2021,08,11,12,57,24.90
2021,08,11,12,58,24.90
2021,08,11,12,59,24.90
2021,08,11,13,00,24.90
2021,08,11,13,01,24.90
2021,08,11,13,02,24.90
2021,08,11,13,03,24.90
2021,08,11,13,04,24.90
2021,08,11,13,05,24.90
2021,08,11,13,06,24.90
2021,08,11,13,07,25.00
2021,08,11,13,08,25.00
2021,08,11,13,09,25.10
2021,08,11,13,10,25.10
2021,08,11,13,11,25.10
2021,08,11,13,12,25.10
2021,08,11,13,13,25.20
2021,08,11,13,14,25.20
2021,08,11,13,15,25.30
2021,08,11,13,16,25.30
2021,08,11,13,17,25.30
2021,08,11,13,18,25.40
2021,08,11,13,19,25.50
2021,08,11,13,20,25.50
2021,08,11,13,21,25.60
2021,08,11,13,22,25.60
2021,08,11,13,23,25.60
2021,08,11,13,24,25.70
2021,08,11,13,25,25.70
2021,08,11,13,26,25.80
2021,08,11,13,27,25.80
2021,08,11,13,28,25.80
2021,08,11,13,29,25.80
2021,08,11,13,30,25.90
2021,08,11,13,31,26.00
2021,08,11,13,32,26.00
2021,08,11,13,33,26.10
2021,08,11,13,34,26.10
2021,08,11,13,35,26.20
2021,08,11,13,36,26.30
2021,08,11,13,37,26.30
2021,08,11,13,38,26.30
2021,08,11,13,39,26.40
2021,08,11,13,40,26.40
2021,08,11,13,41,26.50
2021,08,11,13,42,26.50
2021,08,11,13,43,26.60
2021,08,11,13,44,26.70
2021,08,11,13,45,26.70
2021,08,11,13,46,26.80
2021,08,11,13,47,26.80
2021,08,11,13,48,26.80
2021,08,11,13,49,26.90
2021,08,11,13,50,26.90
2021,08,11,13,51,26.90
2021,08,11,13,52,27.00
2021,08,11,13,53,27.10
2021,08,11,13,54,27.10
2021,08,11,13,55,27.20
2021,08,11,13,56,27.20
2021,08,11,13,57,27.30
2021,08,11,13,58,27.30
2021,08,11,13,59,27.30
2021,08,11,14,00,27.40
2021,08,11,14,01,27.40
2021,08,11,14,02,27.30
2021,08,11,14,03,27.30
2021,08,11,14,04,27.20
2021,08,11,14,05,27.20
2021,08,11,14,06,27.10
2021,08,11,14,07,27.00
2021,08,11,14,08,27.00
2021,08,11,14,09,27.00
2021,08,11,14,10,27.00
2021,08,11,14,11,26.90
2021,08,11,14,12,26.90
2021,08,11,14,13,26.90
2021,08,11,14,14,26.90
2021,08,11,14,15,26.90
2021,08,11,14,16,26.90
2021,08,11,14,17,26.90
2021,08,11,14,18,26.90
2021,08,11,14,19,26.90
2021,08,11,14,20,26.90
2021,08,11,14,21,26.80
2021,08,11,14,22,26.80
2021,08,11,14,23,26.70
2021,08,11,14,24,26.70
2021,08,11,14,25,26.70
2021,08,11,14,26,26.70
2021,08,11,14,27,26.70
2021,08,11,14,28,26.80
2021,08,11,14,29,26.80
2021,08,11,14,30,26.90
2021,08,11,14,31,26.90
2021,08,11,14,32,27.00
2021,08,11,14,33,27.00
2021,08,11,14,34,27.10
2021,08,11,14,35,27.10
2021,08,11,14,36,27.10
2021,08,11,14,37,27.00
2021,08,11,14,38,27.00
2021,08,11,14,39,27.00
2021,08,11,14,40,26.90
2021,08,11,14,41,27.00
2021,08,11,14,42,27.00
2021,08,11,14,43,27.00
2021,08,11,14,44,27.10
2021,08,11,14,45,27.10
2021,08,11,14,46,27.10
2021,08,11,14,47,27.20
2021,08,11,14,48,27.20
2021,08,11,14,49,27.20
2021,08,11,14,50,27.20
2021,08,11,14,51,27.30
2021,08,11,14,52,27.30
2021,08,11,14,53,27.30
2021,08,11,14,54,27.40
2021,08,11,14,55,27.40
2021,08,11,14,56,27.50
2021,08,11,14,57,27.60
2021,08,11,14,58,27.60
2021,08,11,14,59,27.60
2021,08,11,15,00,27.60
2021,08,11,15,01,27.60
2021,08,11,15,02,27.50
2021,08,11,15,03,27.40
2021,08,11,15,04,27.30
2021,08,11,15,05,27.30
2021,08,11,15,06,27.30
2021,08,11,15,07,27.30
2021,08,11,15,08,27.30
2021,08,11,15,09,27.30
2021,08,11,15,10,27.30
2021,08,11,15,11,27.30
2021,08,11,15,12,27.30
2021,08,11,15,13,27.40
2021,08,11,15,14,27.40
2021,08,11,15,15,27.40
2021,08,11,15,16,27.40
2021,08,11,15,17,27.50
2021,08,11,15,18,27.50
2021,08,11,15,19,27.60
2021,08,11,15,20,27.60
2021,08,11,15,21,27.70
2021,08,11,15,22,27.70
2021,08,11,15,23,27.70
2021,08,11,15,24,27.80
2021,08,11,15,25,27.80
2021,08,11,15,26,27.80
2021,08,11,15,27,27.90
2021,08,11,15,28,27.90
2021,08,11,15,29,27.90
2021,08,11,15,30,28.00
2021,08,11,15,31,28.00
2021,08,11,15,32,28.00
2021,08,11,15,33,28.10
2021,08,11,15,34,28.10
2021,08,11,15,35,28.10
2021,08,11,15,36,28.10
2021,08,11,15,37,28.10
2021,08,11,15,38,28.10
2021,08,11,15,39,28.10
2021,08,11,15,40,28.20
2021,08,11,15,41,28.20
2021,08,11,15,42,28.20
2021,08,11,15,43,28.30
2021,08,11,15,44,28.30
2021,08,11,15,45,28.30
2021,08,11,15,46,28.30
2021,08,11,15,47,28.30
2021,08,11,15,48,28.20
2021,08,11,15,49,28.10
2021,08,11,15,50,28.10
2021,08,11,15,51,28.10
2021,08,11,15,52,28.10
2021,08,11,15,53,28.10
2021,08,11,15,54,28.10
2021,08,11,15,55,28.10
2021,08,11,15,56,28.00
2021,08,11,15,57,28.00
2021,08,11,15,58,28.00
2021,08,11,15,59,28.00
2021,08,11,16,00,28.00
2021,08,11,16,01,28.00
2021,08,11,16,02,28.00
2021,08,11,16,03,27.90
2021,08,11,16,04,27.90
2021,08,11,16,05,27.90
2021,08,11,16,06,27.90
2021,08,11,16,07,27.90
2021,08,11,16,08,27.90
2021,08,11,16,09,27.80
2021,08,11,16,10,27.80
2021,08,11,16,11,27.80
2021,08,11,16,12,27.80
2021,08,11,16,13,27.70
2021,08,11,16,14,27.80
2021,08,11,16,15,27.70
2021,08,11,16,16,27.80
2021,08,11,16,17,27.80
2021,08,11,16,18,27.80
2021,08,11,16,19,27.80
2021,08,11,16,20,27.80
2021,08,11,16,21,27.80
2021,08,11,16,22,27.80
2021,08,11,16,23,27.90
2021,08,11,16,24,27.90
2021,08,11,16,25,28.00
2021,08,11,16,26,28.00
2021,08,11,16,27,28.00
2021,08,11,16,28,28.00
2021,08,11,16,29,27.90
2021,08,11,16,30,27.90
2021,08,11,16,31,27.90
2021,08,11,16,32,27.90
2021,08,11,16,33,27.80
2021,08,11,16,34,27.80
2021,08,11,16,35,27.80
2021,08,11,16,36,27.80
2021,08,11,16,37,27.70
2021,08,11,16,38,27.70
2021,08,11,16,39,27.70
2021,08,11,16,40,27.60
2021,08,11,16,41,27.60
2021,08,11,16,42,27.60
2021,08,11,16,43,27.60
2021,08,11,16,44,27.60
2021,08,11,16,45,27.50
2021,08,11,16,46,27.60
2021,08,11,16,47,27.50
2021,08,11,16,48,27.50
2021,08,11,16,49,27.50
2021,08,11,16,50,27.50
2021,08,11,16,51,27.40
2021,08,11,16,52,27.40
2021,08,11,16,53,27.40
2021,08,11,16,54,27.30
2021,08,11,16,55,27.30
2021,08,11,16,56,27.20
2021,08,11,16,57,27.20
2021,08,11,16,58,27.20
2021,08,11,16,59,27.10
2021,08,11,17,00,27.10
2021,08,11,17,01,27.10
2021,08,11,17,02,27.10
2021,08,11,17,03,27.10
2021,08,11,17,04,27.10
2021,08,11,17,05,27.20
2021,08,11,17,06,27.20
2021,08,11,17,07,27.20
2021,08,11,17,08,27.20
2021,08,11,17,09,27.20
2021,08,11,17,10,27.20
2021,08,11,17,11,27.30
2021,08,11,17,12,27.30
2021,08,11,17,13,27.30
2021,08,11,17,14,27.30
2021,08,11,17,15,27.30
2021,08,11,17,16,27.30
2021,08,11,17,17,27.30
2021,08,11,17,18,27.30
2021,08,11,17,19,27.30